STARLINK-31885, 59660

Orbit data source: Space-Track

STARLINK-31885, 59660 is a payload satellite owned by SpaceX/Seattle (US) in LEO that was launched on Mon, 06 May 2024 UTC via an FALCON 9 launch vehicle from the Air Force Eastern Test Range (AFETR). Payload-class satellites include a variety of spacecraft equipped with specific instruments for various scientific and technological missions. These include communications satellites like Starlink; space stations such as the ISS; scientific satellites like the Hubble; Earth observation satellites from companies like Planet Labs, Umbra, and HawkEye 360; GPS; miniature CubeSats for education and research; and military/defense satellites.

Loading next visibility...
Identifier
59660, 2024-084G
Orbit
LEO
Country
Flag of USUS
Related business
Manufacturer
SpaceX/Seattle
Mission
Operational Commercial Communications
Bus & Motor
STARLINK V2M, Unknown motor
Mass
730 kg wet, ~700 kg dry
Launch date (UTC)
2024-05-06 (1 year ago)
Launch vehicle
FALCON 9
Launch site
Air Force Eastern Test Range (AFETR)
Object type
Payload
Rocket body
Debris
Shape & HBR
Box + 2 Pan, 17.7 m
Radar Cross Section
33.884 m², Large (>1 m²)

Expand to show TLE details & history
Last TLE update: 7 hours ago

TLE from 7 hours ago
0 STARLINK-31885
1 59660U 24084G   25288.60340554  .00005007  00000-0  19117-3 0  9990
2 59660  43.0021 137.7437 0001837 271.1468  88.9173 15.27614281 82225
Epoch: 2025-10-15T14:28Z
TLE epoch observation values (Epoch: 2025-10-15T14:28:54.238Z)
Latitude
-0.00004°
Longitude
-103.85744°
Altitude
482.699 km
Speed
7.626 km/s
True Right ascension
09h 10m 58s
True Declination
0° 00' 00"
Sunlit
Object was in daylight at epoch
Visualization orbit readout
Latitude
Unknown
Longitude
Unknown
Altitude
Unknown
Speed
Unknown
Apparent Right ascension
Unknown
Apparent Declination
Unknown
Sunlit
N/A
Visualization observer readout
Local Sidereal Time
16:03:43
Azimuth
Unknown
Elevation
Unknown
Doppler factor
Unknown
Orbital elements
Apogee altitude
486.152 km
Perigee altitude
483.631 km
Semi-major axis
6,863.028 km
Eccentricity
0.00018
Inclination
43.0021°
RAAN
137.7437°
Arg. of periapsis
271.1468°
True anomaly
88.93835°
Mean anomaly
88.9173°
Eccentric anomaly
88.92782°
Mean motion
3.81742 °/min
Orbital period
94.3 mins
BSTAR
0.00019117
Loading maneuver chart data...
Computing Atmospheric mass density...
Loading historical data...
Loading historical data...
Loading historical data...
Loading historical data...
Loading historical data...
Loading historical data...
Loading historical data...

Documentation

Showing up to 5 results
|